Content
SEND FEEDBACK

Daily
Averages
Monthly
Summary
United States of America

MAURICEVILLE, TEXAS


Home > North America > United States > Texas
Elevation: 6 meters     Latitude: 30 14N     Longitude: 093 44W

WEATHER
 
SELECT A DAY
Number of Records: 115,423;   Date Range: 8/25/05 - 10/22/14
 
SHARE

PRINT THIS DATA

[ ← Previous Day ]
WEATHER ALMANAC - 3 APRIL, 2013
[ Next Day → ]
[ °F ]   °C
Weather ElementAverageHighLow
Temperature12.6 °C18.5 °C (12:35 am)9.7 °C (11:55 pm)
Dewpoint10.7 °C16.7 °C (12:35 am)8.5 °C (11:35 pm)
Humidity88.5 %96 % (7:55 am)81 % (2:35 pm)
Barometer1015.2 hPa1019.3 hPa (10:55 pm)1011.2 hPa (12:35 am)
Wind Speed14.5 km/h24.1 km/h (11:15 am)
Wind Gust35.2 km/h (9:55 am)
Weather ElementAverage
Visibility15.1 km
Wind DirectionSW (224 °)

Weather ElementTotal
Precipitation3.3 mm
Heating Degree Days4.2 (Base 18.3)
Growing Degree Days4.1 (Base 10)
Averaged from 52 records on 3 April, 2013
WEATHER CONDITIONS BREAKOUT
WIND DIRECTION BREAKOUT
WEATHER BY HOUR - 3 APRIL, 2013
[ °F ]   °C
Local TimeTemperatureDewpointHumidityBarometerVisibilityWind DirectionWind SpeedGust SpeedPrecipitationEventsConditions
12:35 AM18.5 °C16.7 °C89 %1011.2 hPa6.4 kmEast (80°)20.4 km/h27.8 km/h1.78 mmRain-ThunderstormHeavy Thunderstorms and Rain
7:15 AM14.5 °C13.5 °C94 %1012.2 hPa16.1 kmNorth (360°)9.3 km/h
7:35 AM14.5 °C13.5 °C94 %1012.9 hPa16.1 kmNorth (360°)5.6 km/hOvercast
7:55 AM14.7 °C14 °C96 %1012.5 hPa16.1 kmNorth (10°)7.4 km/hOvercast
8:15 AM15 °C14.1 °C94 %1012.5 hPa16.1 kmNNE (30°)7.4 km/hOvercast
8:35 AM15.1 °C14.4 °C96 %1013.2 hPa16.1 kmNorth (360°)5.6 km/hOvercast
8:55 AM15.3 °C14.5 °C95 %1013.2 hPa16.1 kmNNW (330°)11.1 km/hOvercast
9:15 AM14.6 °C13.8 °C95 %1013.2 hPa6.4 kmNW (320°)16.7 km/hOvercast
9:35 AM14 °C13.2 °C95 %1013.5 hPa2.9 kmNNW (330°)18.5 km/h29.6 km/hOvercast
9:55 AM13.6 °C12.9 °C96 %1013.9 hPa4 kmNNW (330°)20.4 km/h35.2 km/hOvercast
10:15 AM13.5 °C12.5 °C94 %1014.2 hPa8 kmNNW (340°)18.5 km/h31.5 km/hOvercast
10:35 AM13.5 °C12.4 °C93 %1014.9 hPa16.1 kmNNW (340°)14.8 km/h25.9 km/hOvercast
10:55 AM13.5 °C12.1 °C91 %1015.2 hPa16.1 kmNNW (340°)16.7 km/h25.9 km/hOvercast
11:15 AM13.9 °C12 °C88 %1015.6 hPa16.1 kmNorth (350°)24.1 km/h29.6 km/hOvercast
11:35 AM13.5 °C11.7 °C89 %1015.6 hPa16.1 kmNorth (350°)18.5 km/hOvercast
11:55 AM13.5 °C11.6 °C88 %1015.6 hPa16.1 kmNorth (350°)20.4 km/h27.8 km/hOvercast
12:15 PM13.5 °C11.2 °C86 %1015.6 hPa16.1 kmNorth (360°)20.4 km/h27.8 km/hOvercast
12:35 PM13 °C10.8 °C87 %1015.6 hPa16.1 kmNorth (360°)20.4 km/h31.5 km/hOvercast
12:55 PM12.7 °C10.8 °C88 %1014.9 hPa16.1 kmNorth (350°)22.2 km/h29.6 km/hOvercast
1:15 PM12.5 °C10.3 °C86 %1014.9 hPa16.1 kmNorth (10°)18.5 km/h29.6 km/hOvercast
1:35 PM12.6 °C10.2 °C85 %1014.9 hPa16.1 kmNNW (340°)20.4 km/h27.8 km/hOvercast
1:55 PM12.9 °C10.4 °C85 %1014.6 hPa16.1 kmNorth (10°)16.7 km/hOvercast
2:15 PM13.3 °C10.5 °C83 %1014.6 hPa16.1 kmNorth (350°)14.8 km/hOvercast
2:35 PM13.9 °C10.6 °C81 %1014.6 hPa16.1 kmNorth (360°)14.8 km/h27.8 km/hOvercast
2:55 PM13.6 °C10.5 °C82 %1014.6 hPa16.1 kmNNW (340°)22.2 km/h29.6 km/hOvercast
3:15 PM13.5 °C10.3 °C81 %1014.6 hPa16.1 kmNNW (340°)20.4 km/h29.6 km/hOvercast
3:35 PM13.2 °C10.4 °C83 %1014.2 hPa16.1 kmNNW (340°)22.2 km/h33.3 km/hOvercast
3:55 PM13 °C10.2 °C83 %1014.2 hPa16.1 kmNorth (350°)16.7 km/h31.5 km/hOvercast
4:15 PM13.2 °C10.2 °C82 %1014.2 hPa16.1 kmNorth (10°)22.2 km/h33.3 km/hOvercast
4:35 PM13.4 °C10.5 °C83 %1014.2 hPa16.1 kmNNW (340°)22.2 km/h31.5 km/hOvercast
4:55 PM12.9 °C10.1 °C83 %1014.6 hPa16.1 kmNNW (330°)20.4 km/h29.6 km/hOvercast
5:15 PM12.1 °C9.5 °C84 %1014.2 hPa16.1 kmNNW (340°)22.2 km/h33.3 km/hOvercast
5:35 PM11.9 °C9.4 °C85 %1013.9 hPa16.1 kmNorth (350°)20.4 km/h29.6 km/hOvercast
5:55 PM11.8 °C9.4 °C85 %1013.5 hPa16.1 kmNorth (360°)14.8 km/h25.9 km/hOvercast
6:15 PM11.7 °C9.3 °C85 %1014.2 hPa16.1 kmNorth (10°)16.7 km/h27.8 km/hOvercast
6:35 PM11.6 °C9.3 °C86 %1013.9 hPa16.1 kmNorth (10°)14.8 km/hOvercast
6:55 PM11.5 °C9.2 °C86 %1013.9 hPa16.1 kmNNE (30°)20.4 km/h27.8 km/hOvercast
7:15 PM11.3 °C8.8 °C85 %1014.6 hPa16.1 kmNorth (360°)18.5 km/h27.8 km/hOvercast
7:35 PM11.2 °C9 °C86 %1015.6 hPa16.1 kmNorth (10°)5.6 km/hOvercast
7:55 PM11.2 °C8.8 °C85 %1016.9 hPa16.1 kmNorth (360°)14.8 km/hOvercast
8:15 PM11.2 °C9.1 °C87 %1017.9 hPa16.1 kmNNW (330°)5.6 km/hOvercast
8:35 PM10.9 °C8.8 °C87 %1017.9 hPa16.1 kmNorth (10°)14.8 km/hRainLight Rain
8:55 PM10.6 °C8.8 °C89 %1017.9 hPa16.1 kmCalmRainRain
9:15 PM10.5 °C9 °C90 %1017.6 hPa16.1 kmNorth (10°)9.3 km/h0.25 mmRainRain
9:35 PM10.3 °C9 °C92 %1018.6 hPa16.1 kmCalm0.25 mmOvercast
9:55 PM10.2 °C9 °C92 %1018.3 hPa16.1 kmCalm0.51 mmRainLight Rain
10:15 PM10.2 °C9.1 °C93 %1016.3 hPa16.1 kmNE (50°)24.1 km/hLight Drizzle
10:35 PM10.2 °C9.1 °C93 %1018.3 hPa16.1 kmCalm0.25 mmOvercast
10:55 PM10.1 °C8.9 °C92 %1019.3 hPa16.1 kmWNW (300°)11.1 km/h25.9 km/h0.25 mmRainLight Rain
11:15 PM10 °C8.6 °C91 %1018.3 hPa16.1 kmCalmRainLight Rain
11:35 PM9.8 °C8.5 °C92 %1018.3 hPa16.1 kmNorth (350°)9.3 km/hRainRain
11:55 PM9.7 °C8.5 °C92 %1018.3 hPa16.1 kmCalmOvercast
Hourly data recorded from KORG, located 0 kilometers away from Mauriceville, Texas







STORIES FROM OUR PARTNERS